Overview Statistics Trail Chart Weather Telemetry Raw packets
 

This is the latest recevied weather packets stored in our database for station/object KA1BMF-13. If no packets are shown the sender has not sent any weather packets the latest 10 day(s).

<< 24 25 26 27 28 29 30 >>
Time Temp. Humidity Pressure Rain* Wind** Luminosity Snow
1788153327 20° C 95% 1018.3 hPa 0 mm - 0 W/m² -
1788152727 20.56° C 95% 1018.3 hPa 0 mm - 0 W/m² -
1788152127 20.56° C 95% 1018.2 hPa 0 mm - 0 W/m² -
1788151527 21.11° C 95% 1018.2 hPa 0 mm - 0 W/m² -
1788150927 21.11° C 95% 1018.1 hPa 0 mm - 0 W/m² -
1788150327 21.11° C 95% 1018.1 hPa 0 mm - 0 W/m² -
1788149728 21.67° C 95% 1018.2 hPa 0 mm - 0 W/m² -
1788149117 21.67° C 95% 1018.1 hPa 0 mm - 0 W/m² -
1788148520 21.67° C 95% 1018.2 hPa 0 mm - 0 W/m² -
1788147918 21.67° C 95% 1018 hPa 0 mm - 0 W/m² -
1788147318 21.67° C 95% 1018 hPa 0 mm - 0 W/m² -
1788146718 21.67° C 94% 1018.3 hPa 0 mm - 0 W/m² -
1788146118 21.67° C 94% 1018.2 hPa 0 mm - 0 W/m² -
1788145518 22.22° C 93% 1018.2 hPa 0 mm - 0 W/m² -
1788144919 22.22° C 92% 1018.2 hPa 0 mm - 0 W/m² -
1788144319 22.22° C 92% 1018.2 hPa 0 mm - 0 W/m² -
1788143716 22.22° C 92% 1018.1 hPa 0 mm - 0 W/m² -
1788143116 22.22° C 92% 1018.1 hPa 0 mm - 0 W/m² -
1788142519 22.22° C 93% 1018 hPa 0 mm - 0 W/m² -
1788141920 22.22° C 95% 1017.9 hPa 0 mm - 0 W/m² -
1788141320 21.67° C 95% 1018 hPa 0 mm - 0 W/m² -
1788140717 21.67° C 95% 1017.9 hPa 0 mm - 0 W/m² -
1788140117 21.67° C 94% 1017.8 hPa 0 mm - 0 W/m² -
1788139520 22.22° C 94% 1017.8 hPa 0 mm - 0 W/m² -
1788138920 22.22° C 93% 1017.7 hPa 0 mm - 0 W/m² -

* Rain latest hour (hover to see other rain measurements)
** Current wind speed in m/s (hover to see current wind gust speed)